Millinocket, ME

12:09 PM EST on December 04, 2016 (GMT -0500)
Millinocket Municipal

Weather History for KMLT - May, 2014

Change the Weather History Date:

Monday, May 26, 2014

  Actual Average Record
Temperature  
Mean Temperature 63 °F 56 °F  
Max Temperature 75 °F 68 °F 88 °F (1950)
Min Temperature 51 °F 45 °F 26 °F (1907)
Degree Days  
Heating Degree Days 2 9  
Month to date heating degree days 263 328  
Since 1 July heating degree days 8411 8249  
Cooling Degree Days 0 0  
Month to date cooling degree days 2 0  
Year to date cooling degree days 2 0  
Growing Degree Days 12 (Base 50)    
Moisture  
Dew Point 53 °F    
Average Humidity 71    
Maximum Humidity 93    
Minimum Humidity 49    
Precipitation  
Precipitation 0.14 in 0.12 in 1.60 in (1930)
Month to date precipitation 2.71 2.73  
Year to date precipitation 13.21 14.46  
Sea Level Pressure  
Sea Level Pressure 29.78 in    
Wind  
Wind Speed 5 mph (NNW)    
Max Wind Speed 22 mph    
Max Gust Speed 29 mph    
Visibility 10 miles    
Events Rain , Thunderstorm    
T = Trace of Precipitation, MM = Missing Value Source: NWS Daily Summary

Daily Weather History Graph

Daily Weather History Graph

Search for Another Location

Airport or City:

Trip Planner

Search our weather history database for the weather conditions in past years. The results will help you decide how hot, cold, wet, or windy it might be!

Date:

Astronomy

May. 26, 2014 Rise Set
Actual Time 4:53 AM EDT 8:11 PM EDT
Civil Twilight 4:16 AM EDT 8:47 PM EDT
Nautical Twilight 3:29 AM EDT 9:35 PM EDT
Astronomical Twilight 2:30 AM EDT 10:34 PM EDT
Moon 3:40 AM EDT (5/26) 6:03 PM EDT (5/26)
Length of Visible Light 16h 30m
Length of Day
15h 18m
Waning Crescent, 5% of the Moon is Illuminated
May 26
Waning Crescent
May 28
New
Jun 5
First Quarter
Jun 13
Full
Jun 19
Last Quarter

Hourly Weather History & Observations

Time (EDT) Temp. Dew Point Humidity Pressure Visibility Wind Dir Wind Speed Gust Speed Precip Events Conditions
12:53 AM 54.0 °F 48.9 °F 83% 29.92 in 10.0 mi Variable 4.6 mph - N/A   Scattered Clouds
1:53 AM 53.1 °F 48.0 °F 83% 29.90 in 10.0 mi Variable 5.8 mph - N/A   Scattered Clouds
2:53 AM 53.1 °F 48.9 °F 86% 29.88 in 10.0 mi South 5.8 mph - 0.00 in Rain Light Rain
3:42 AM 52.0 °F 48.9 °F 89% 29.84 in 10.0 mi Variable 3.5 mph - 0.00 in   Mostly Cloudy
3:53 AM 52.0 °F 48.9 °F 89% 29.86 in 9.0 mi Variable 4.6 mph - 0.01 in Rain Light Rain
4:22 AM 52.0 °F 48.9 °F 89% 29.83 in 10.0 mi Calm Calm - 0.00 in   Overcast
4:51 AM 51.8 °F 50.0 °F 94% 29.82 in 10.0 mi Variable 3.5 mph - 0.00 in Rain Light Rain
4:53 AM 52.0 °F 50.0 °F 93% 29.83 in 10.0 mi Variable 3.5 mph - 0.00 in Rain Light Rain
5:00 AM 52.0 °F 48.9 °F 89% 29.81 in 10.0 mi Calm Calm - 0.00 in Rain Light Rain
5:48 AM 51.8 °F 50.0 °F 94% 29.80 in 10.0 mi Variable 3.5 mph - 0.00 in   Overcast
5:53 AM 53.1 °F 50.0 °F 89% 29.81 in 10.0 mi Calm Calm - 0.00 in   Overcast
6:53 AM 54.0 °F 51.1 °F 90% 29.81 in 10.0 mi Variable 3.5 mph - 0.00 in   Overcast
7:18 AM 54.0 °F 51.1 °F 90% 29.80 in 10.0 mi Variable 4.6 mph - N/A   Overcast
8:53 AM 57.0 °F 53.1 °F 87% 29.81 in 10.0 mi South 3.5 mph - 0.00 in   Overcast
9:37 AM 57.0 °F 53.1 °F 87% 29.77 in 10.0 mi Calm Calm - 0.00 in Rain Light Rain
9:53 AM 57.9 °F 55.0 °F 90% 29.79 in 9.0 mi Calm Calm - 0.02 in Rain Light Rain
10:53 AM 63.0 °F 57.0 °F 81% 29.76 in 10.0 mi Calm Calm - 0.00 in   Scattered Clouds
11:15 AM 66.0 °F 57.9 °F 75% 29.74 in 10.0 mi Variable 3.5 mph - N/A   Mostly Cloudy
11:35 AM 68.0 °F 57.9 °F 70% 29.74 in 10.0 mi Variable 5.8 mph - N/A   Mostly Cloudy
11:51 AM 66.2 °F 57.2 °F 73% 29.73 in 10.0 mi Variable 4.6 mph - N/A   Mostly Cloudy
11:53 AM 68.0 °F 55.9 °F 65% 29.75 in 10.0 mi NW 5.8 mph - N/A   Overcast
12:31 PM 70.0 °F 55.9 °F 61% 29.73 in 10.0 mi WNW 8.1 mph - N/A   Overcast
12:53 PM 73.0 °F 55.9 °F 55% 29.73 in 10.0 mi West 9.2 mph 18.4 mph N/A   Partly Cloudy
1:53 PM 73.0 °F 54.0 °F 51% 29.70 in 10.0 mi West 9.2 mph - N/A   Partly Cloudy
2:34 PM 66.0 °F 51.1 °F 59% 29.68 in 10.0 mi Variable 5.8 mph - 0.01 in Rain , Thunderstorm Light Thunderstorms and Rain
2:49 PM 66.2 °F 53.6 °F 64% 29.68 in 10.0 mi West 6.9 mph - 0.01 in   Scattered Clouds
3:53 PM 69.1 °F 55.0 °F 61% 29.66 in 10.0 mi West 8.1 mph 18.4 mph N/A   Clear
4:53 PM 73.0 °F 55.9 °F 55% 29.65 in 10.0 mi West 9.2 mph 16.1 mph N/A Thunderstorm Clear
5:11 PM 73.0 °F 52.0 °F 48% 29.68 in 10.0 mi North 20.7 mph 27.6 mph N/A   Scattered Clouds
5:24 PM 66.0 °F 51.1 °F 59% 29.67 in 9.0 mi NNE 16.1 mph 23.0 mph 0.00 in Rain Light Rain
5:53 PM 61.0 °F 55.9 °F 83% 29.70 in 10.0 mi East 4.6 mph - 0.05 in Rain Light Rain
6:53 PM 62.1 °F 57.0 °F 84% 29.74 in 6.0 mi NW 3.5 mph - 0.02 in Rain Light Rain
7:53 PM 60.1 °F 53.1 °F 78% 29.77 in 10.0 mi NE 6.9 mph - 0.03 in   Overcast
8:53 PM 59.0 °F 53.1 °F 81% 29.81 in 10.0 mi NE 5.8 mph - N/A   Overcast
9:53 PM 57.0 °F 53.1 °F 87% 29.83 in 10.0 mi NNW 3.5 mph - N/A   Scattered Clouds
10:53 PM 55.9 °F 50.0 °F 80% 29.85 in 10.0 mi NNE 8.1 mph - N/A   Overcast
11:53 PM 53.1 °F 46.9 °F 80% 29.86 in 10.0 mi NE 6.9 mph - N/A   Clear